Regional Weather Roundup
Issued by NWS

Home | Current Version | Previous Version | Text Only | Print | Product List | Glossary On
Versions: 1 2 3 4 5 6 7 8 9 10 11 12 13 14 15 16 17 18 19 20 21 22 23 24 25 26 27 28 29 30 31 32 33 34 35 36 37 38 39 40 41 42 43 44 45 46 47 48 49 50
308
ASUS43 KMKX 252100
RWRWI

WISCONSIN REGIONAL WEATHER ROUNDUP
NATIONAL WEATHER SERVICE MILWAUKEE/SULLIVAN WI
400 PM CDT WED MAY 25 2016

NOTE: "FAIR" INDICATES FEW OR NO CLOUDS BELOW 12,000 FEET WITH NO
SIGNIFICANT WEATHER AND/OR OBSTRUCTIONS TO VISIBILITY.

WIZ001-002-006>008-014>016-023>028-252200-
NORTHWEST WISCONSIN

CITY           SKY/WX    TMP DP  RH WIND       PRES   REMARKS
SUPERIOR ARPT  HVY RAIN  43  43  99 NE13G18   29.99R
ASHLAND        CLOUDY    50  47  89 NE14      29.93F
HAYWARD        CLOUDY    63  57  81 VRB7      29.86F
SIREN          RAIN      60  59  96 N7        29.88S
CUMBERLAND     CLOUDY    64  63  94 S10G20    29.86R
RICE LAKE      TSTM      65  61  85 SW16      29.87R VSB 1
CHETEK         HVY RAIN  64  63  94 SE10G43   29.87R
LADYSMITH      CLOUDY    76  59  55 SE15G23   29.86S
EAU CLAIRE     HVY RAIN  66  63  88 SE6       29.84F FOG
MENOMONIE      CLOUDY    72  67  84 S8        29.85S
NEW RICHMOND   CLOUDY    72  62  71 S10       29.84F
OSCEOLA        LGT RAIN  69  69 100 NE5       29.87F
$$

WIZ003>005-009-010-017-018-252200-
NORTH CENTRAL WISCONSIN

CITY           SKY/WX    TMP DP  RH WIND       PRES   REMARKS
MANITOWISH WTR NOT AVBL
ARBOR VITAE    PTSUNNY   77  51  40 SE13G21   29.92F
WOODRUFF       PTSUNNY   77  51  40 SE13G21   29.92F
RHINELANDER    MOSUNNY   76  56  49 E20       29.93F
EAGLE RIVER      N/A     76  48  37 E15       29.93F
LAND O LAKES   SUNNY     76  54  46 E14       29.95F
PHILLIPS       CLOUDY    76  59  55 E10G17    29.88F
TOMAHAWK       CLOUDY    75  58  54 SE6       29.91F
MEDFORD        LGT RAIN  70  60  70 SE12      29.91R
MERRILL        CLOUDY    77  60  55 SE13      29.91F
$$

WIZ029-030-035-036-043>047-252200-
CENTRAL WISCONSIN

CITY           SKY/WX    TMP DP  RH WIND       PRES   REMARKS
WAUSAU         CLOUDY    75  59  57 E12G20    29.90S
MOSINEE        NOT AVBL
MARSHFIELD     TSTM      69  64  84 SE18G25   29.90S
STEVENS POINT  CLOUDY    72  58  62 E14       29.91R
WAUPACA        CLOUDY    80  61  52 E14       29.90F HX  81
WAUTOMA        HVY RAIN  72  64  76 NE13      29.87F
WISC RAPIDS    TSTM      69  63  81 S6        29.93R
CAMP DOUGLAS   NOT AVBL
$$

WIZ011>013-019>022-031-037>040-048>050-252200-
NORTHEAST WISCONSIN

CITY           SKY/WX    TMP DP  RH WIND       PRES   REMARKS
ANTIGO         CLOUDY    74  59  60 E21       29.93F
SHAWANO        PTSUNNY   76  59  55 E14       29.94F
OCONTO         MOSUNNY   67  59  73 E13G18    29.96F
STURGEON BAY   NOT AVBL
GREEN BAY      MOSUNNY   71  59  65 NE14      29.94F
MANITOWOC      NOT AVBL
APPLETON       PTSUNNY   75  55  50 E10G17    29.90F
CLINTONVILLE   CLOUDY    73  59  60 E10       29.92F
OSHKOSH        MOSUNNY   74  59  59 E17G25    29.88F
$$

WIZ032>034-041-042-053>061-252200-
SOUTHWEST WISCONSIN

CITY           SKY/WX    TMP DP  RH WIND       PRES   REMARKS
LA CROSSE      MOSUNNY   75  67  76 SE6       29.81F
SPARTA         DRIZZLE   73  67  80 SE3       29.84F
VIROQUA        MOSUNNY   71  65  81 SE7       29.85F
BOSCOBEL       CLOUDY    85  62  46 S10G17    29.82F HX  85
PRAIRIE DU CHI CLOUDY    81  62  51 S9G16     29.82F HX  82
PLATTEVILLE    CLOUDY    82  61  48 S20G26    29.85F HX  83
$$

WIZ056-057-062-063-064-067-068-252200-
SOUTH CENTRAL WISCONSIN

CITY           SKY/WX    TMP DP  RH WIND       PRES   REMARKS
REEDSBURG      CLOUDY    83  64  53 S10G21    29.84F HX  84
BARABOO/DELLS  CLOUDY    80  63  54 SE8       29.85F HX  82
LONE ROCK      NOT AVBL
MINERAL POINT  CLOUDY    82  57  42 S14G22    29.86F HX  82
MADISON        CLOUDY    78  66  66 SE13      29.86F HX  80
MIDDLETON      CLOUDY    80  67  64 NE9       29.87F HX  83
WATERTOWN      MOSUNNY   82  65  57 E14G21    29.88F HX  84
MONROE         MOSUNNY   82  61  47 SE10      29.88F HX  83
JANESVILLE     PTSUNNY   84  59  42 SE10      29.87F HX  84
$$

WIZ051-052-058>065-066-070>072-252200-
SOUTHEAST WISCONSIN

CITY           SKY/WX    TMP DP  RH WIND       PRES   REMARKS
MILWAUKEE      PTSUNNY   61  53  75 NE9       29.93F
WAUKESHA       SUNNY     73  57  56 E13       29.93F
MILWAUKEE/TIMM SUNNY     66  52  59 E7        29.95F
RACINE         MOSUNNY   64  53  67 NE7       29.94F
BURLINGTON     CLOUDY    83  62  48 SE9G18    29.90F HX  83
KENOSHA        CLOUDY    74  60  61 E9        29.91F
FOND DU LAC    MOSUNNY   77  61  57 SE17G24   29.88F
SHEBOYGAN      MOSUNNY   59  53  80 E13       29.96F
WEST BEND      SUNNY     70  55  60 E10       29.95F
JUNEAU         MOSUNNY   80  64  58 E17       29.89F HX  82
$$

LSZ147-162-252200-
LAKE SUPERIOR

STATION/POSITION TIME  TEMP    WIND        PRES    WAVE
                       AIR SEA DIR/SP/G            HT/PER
                 (UTC) (F)     (DEG/KT/KT) (MB)    (FT/S)
W MID LAKE BUOY  1950   40 38   50/ 17/ 19 1016.3F   2/ 4
DEVILS ISLAND    2000   42      60/ 18/ 21 1015.9F
SAXON HARBOR     2000   47     360/  8/ 11 1014.2F
$$

LMZ867-665-643>646-252200-
LAKE MICHIGAN

STATION/POSITION TIME  TEMP    WIND        PRES    WAVE
                       AIR SEA DIR/SP/G            HT/PER
                 (UTC) (F)     (DEG/KT/KT) (MB)    (FT/S)
CHAMBERS ISLAND  2000   57      30/ 11/ 15 1016.6F
N MID LAKE BUOY  1950   49 45   30/  8/ 10 1017.1F   0
NORTHPORT PIER   2000   56      60/ 11/ 17 1016.6F
SISTER BAY       2004   65      90/  8/ 15   N/A
ALGOMA LAKESHORE 2017           50/ 17/ 23   N/A
KEWAUNEE LAKESHO 2000   52      30/  7/ 10 1015.5F
SHEBOYGAN LAKESH 2000   49      20/ 12/ 12 1016.1F
PORT WASHINGTON  2000   54      40/ 13/ 15 1015.9F
S MID LAKE BUOY  1950   60 53  120/  4/  6 1014.3F   0
KENOSHA   LAKESH 2000   53      20/  7/  9 1014.2F
$$

TC  - TEMPERATURE IN CELSIUS
VSB - VISIBILITY IN STATUTE MILES
WCI - WIND CHILL INDEX
HX  - HEAT INDEX





USA.gov is the U.S. government's official web portal to all federal, state and local government web resources and services.